CW3517 Weather Reports


time (UTC)temp
F
wind
direction
speed
knots
gust
knots
rain 1hr
in
rain 24hr
in
rain mn
in
humidity
%
barometer
mb
20260510190003 54 12 3.5 10.4 0.00 0.00 0.00 66 1013.7
20260510185003 54 14 6.1 13.9 0.00 0.00 0.00 66 1013.6
20260510184003 55 15 6.1 13.9 0.00 0.00 0.00 65 1013.6
20260510183003 55 12 4.3 10.4 0.00 0.00 0.00 64 1013.7
20260510182003 55 4 6.1 10.4 0.00 0.00 0.00 65 1013.7
20260510181003 56 13 7.0 14.8 0.00 0.00 0.00 64 1013.8
20260510180217 56 14 7.0 12.2 0.00 0.00 0.00 64 1013.9
20260510175217 57 27 8.7 15.6 0.00 0.00 0.00 63 1014.0
20260510174003 57 25 7.8 15.6 0.00 0.00 0.00 61 1014.0
20260510173003 57 22 7.8 16.5 0.00 0.00 0.00 61 1014.1
20260510172003 56 22 7.8 13.9 0.00 0.00 0.00 64 1014.3
20260510171003 56 17 7.8 14.8 0.00 0.00 0.00 64 1014.4
20260510170003 56 18 7.8 16.5 0.00 0.00 0.00 65 1014.4
20260510165003 55 20 8.7 19.1 0.00 0.00 0.00 66 1014.4
20260510164003 55 31 11.3 18.2 0.00 0.00 0.00 65 1014.5
20260510163003 56 21 7.0 14.8 0.00 0.00 0.00 68 1014.6
20260510162003 55 31 11.3 17.4 0.00 0.00 0.00 66 1014.6
20260510161217 56 34 10.4 17.4 0.00 0.00 0.00 66 1014.7
20260510160003 56 29 10.4 21.7 0.00 0.00 0.00 67 1014.8
20260510155003 56 29 8.7 15.6 0.00 0.00 0.00 66 1014.7
20260510154003 56 29 9.6 17.4 0.00 0.00 0.00 67 1014.8
20260510153216 56 24 9.6 15.6 0.00 0.00 0.00 66 1014.9
20260510152003 56 26 9.6 16.5 0.00 0.00 0.00 67 1014.9
20260510151003 57 22 8.7 16.5 0.00 0.00 0.00 68 1015.1
20260510150004 57 22 8.7 17.4 0.00 0.00 0.00 68 1015.1
20260510145003 58 17 7.8 17.4 0.00 0.00 0.00 67 1015.2
20260510144218 58 21 10.4 19.1 0.00 0.00 0.00 67 1015.3
20260510143003 58 21 9.6 16.5 0.00 0.00 0.00 67 1015.2
20260510142003 60 7 7.8 15.6 0.00 0.00 0.00 65 1015.4
20260510141003 60 14 11.3 20.9 0.00 0.00 0.00 65 1015.5
20260510140218 61 15 8.7 20.9 0.00 0.00 0.00 63 1015.4
20260510135003 60 25 11.3 20.0 0.00 0.00 0.00 61 1015.6
20260510134003 61 36 10.4 19.1 0.00 0.00 0.00 59 1015.6
20260510133217 61 25 8.7 19.1 0.00 0.00 0.00 60 1015.6
20260510132003 61 17 9.6 16.5 0.00 0.00 0.00 61 1015.6
20260510131003 61 23 11.3 18.2 0.00 0.00 0.00 60 1015.6
20260510130219 61 28 11.3 24.3 0.00 0.00 0.00 61 1015.6
20260510125003 60 29 10.4 19.1 0.00 0.00 0.00 64 1015.6
20260510124003 60 29 9.6 20.0 0.00 0.00 0.00 64 1015.7
20260510123217 60 23 9.6 16.5 0.00 0.00 0.00 66 1015.8
20260510122003 60 22 9.6 18.2 0.00 0.00 0.00 65 1015.9
20260510121003 61 19 8.7 15.6 0.00 0.00 0.00 64 1015.9
20260510120003 61 27 8.7 14.8 0.00 0.00 0.00 63 1015.9
20260510115003 59 28 8.7 16.5 0.00 0.00 0.00 67 1016.0
20260510114003 60 21 9.6 19.1 0.00 0.00 0.00 67 1016.0
20260510113003 60 28 10.4 18.2 0.00 0.00 0.00 62 1016.1
20260510112003 59 26 10.4 18.2 0.00 0.00 0.00 64 1016.3
20260510111003 59 28 11.3 19.1 0.00 0.00 0.00 62 1016.3
20260510110003 60 40 12.2 20.9 0.00 0.00 0.00 63 1016.3
20260510105003 60 35 11.3 19.1 0.00 0.00 0.00 63 1016.4
20260510104003 59 21 11.3 20.0 0.00 0.00 0.00 64 1016.3
20260510103003 58 28 11.3 21.7 0.00 0.00 0.00 66 1016.4
20260510102003 58 35 10.4 16.5 0.00 0.00 0.00 66 1016.5
20260510101003 59 25 10.4 18.2 0.00 0.00 0.00 63 1016.6
20260510100003 59 23 11.3 19.1 0.00 0.00 0.00 64 1016.6
20260510095003 58 24 10.4 18.2 0.00 0.00 0.00 64 1016.7
20260510094003 58 38 9.6 17.4 0.00 0.00 0.00 64 1016.7
20260510093218 58 45 11.3 19.1 0.00 0.00 0.00 67 1016.7
20260510092003 58 42 11.3 18.2 0.00 0.00 0.00 66 1016.8
20260510091003 56 44 13.0 22.6 0.00 0.00 0.00 67 1017.0
20260510090005 56 37 12.2 22.6 0.00 0.00 0.00 69 1017.1
20260510085218 56 25 11.3 20.0 0.00 0.00 0.00 69 1017.1
20260510084003 55 22 10.4 19.1 0.00 0.00 0.00 69 1017.1
20260510083003 56 46 9.6 16.5 0.00 0.00 0.00 71 1017.1
20260510082003 56 36 9.6 19.1 0.00 0.00 0.00 70 1017.1
20260510081218 55 24 11.3 21.7 0.00 0.00 0.00 71 1017.2
20260510080004 54 32 10.4 17.4 0.00 0.00 0.00 73 1017.1
20260510075003 54 44 10.4 17.4 0.00 0.00 0.00 73 1017.1
20260510074003 54 37 10.4 19.1 0.00 0.00 0.00 74 1017.1
20260510073003 53 35 13.0 20.9 0.00 0.00 0.00 74 1017.0
20260510072003 53 43 7.8 14.8 0.00 0.00 0.00 77 1017.0
20260510071003 51 37 11.3 21.7 0.00 0.00 0.00 77 1016.9
20260510070003 51 37 9.6 17.4 0.00 0.00 0.00 77 1016.8
20260510065004 51 32 11.3 21.7 0.00 0.00 0.00 78 1016.5
20260510064003 50 35 9.6 19.1 0.00 0.00 0.00 79 1016.6
20260510063005 50 33 8.7 18.2 0.00 0.00 0.00 80 1016.4
20260510062003 49 30 7.8 18.2 0.00 0.00 0.00 81 1016.4
20260510061003 49 32 8.7 13.9 0.00 0.00 0.00 82 1016.4
20260510060003 48 32 8.7 16.5 0.00 0.00 0.00 83 1016.4
20260510055003 48 29 7.8 15.6 0.00 0.00 0.00 83 1016.4
20260510054003 48 31 8.7 14.8 0.00 0.00 0.00 84 1016.5
20260510053003 47 33 8.7 14.8 0.00 0.00 0.00 84 1016.6
20260510052004 47 28 8.7 15.6 0.00 0.00 0.00 84 1016.5
20260510051216 47 24 7.8 16.5 0.00 0.00 0.00 84 1016.6
20260510050216 47 28 7.8 13.0 0.00 0.00 0.00 84 1016.7
20260510045003 47 28 8.7 16.5 0.00 0.00 0.00 84 1016.6
20260510044003 47 29 7.8 18.2 0.00 0.00 0.00 83 1016.6
20260510043004 48 29 8.7 17.4 0.00 0.00 0.00 82 1016.5
20260510042003 48 25 9.6 16.5 0.00 0.00 0.00 81 1016.5
20260510041003 48 24 7.8 13.9 0.00 0.00 0.00 81 1016.6
20260510040003 49 22 7.8 13.9 0.00 0.00 0.00 79 1016.6
20260510035003 49 26 8.7 17.4 0.00 0.00 0.00 78 1016.5
20260510034003 49 23 9.6 16.5 0.00 0.00 0.00 78 1016.6
20260510033218 50 29 8.7 17.4 0.00 0.00 0.00 78 1016.6
20260510032003 50 26 8.7 15.6 0.00 0.00 0.00 79 1016.7
20260510031003 50 22 7.8 13.9 0.00 0.00 0.00 80 1016.8
20260510030003 50 23 7.8 13.9 0.00 0.00 0.00 81 1016.7
20260510025004 50 18 7.0 14.8 0.00 0.00 0.00 81 1016.7
20260510024003 50 18 7.0 13.9 0.00 0.00 0.00 81 1016.8
20260510023003 51 21 7.0 13.0 0.00 0.00 0.00 81 1016.9
20260510022003 51 17 7.0 13.9 0.00 0.00 0.00 81 1016.8
20260510021003 51 23 7.8 13.9 0.00 0.00 0.00 81 1016.7
20260510020003 51 23 6.1 12.2 0.00 0.00 0.00 81 1016.8
20260510015003 51 20 7.0 13.9 0.00 0.00 0.00 81 1016.6
20260510014003 52 23 6.1 13.0 0.00 0.00 0.00 81 1016.7
20260510013003 52 33 6.1 12.2 0.00 0.00 0.00 82 1016.7
20260510012003 52 37 6.1 12.2 0.00 0.00 0.00 82 1016.6
20260510011003 53 27 7.0 13.9 0.00 0.00 0.00 82 1016.7
20260510010003 53 30 7.8 15.6 0.00 0.00 0.00 82 1016.6
20260510005003 53 26 8.7 13.9 0.00 0.00 0.00 82 1016.6
20260510004003 54 28 7.8 15.6 0.00 0.00 0.00 82 1016.5
20260510003003 54 29 8.7 15.6 0.00 0.00 0.00 82 1016.6
20260510002003 54 29 9.6 15.6 0.00 0.00 0.00 82 1016.6
20260510001003 55 27 8.7 16.5 0.00 0.00 0.00 82 1016.6
20260510000003 55 26 8.7 14.8 0.00 0.00 0.00 82 1016.6
20260509235003 55 27 7.8 13.0 0.00 0.00 0.00 82 1016.6
20260509234003 55 27 8.7 14.8 0.00 0.00 0.00 81 1016.6
20260509233003 56 28 7.0 13.0 0.00 0.00 0.00 81 1016.5
20260509232003 56 27 6.1 12.2 0.00 0.00 0.00 81 1016.6
20260509231003 56 25 6.1 12.2 0.00 0.00 0.00 81 1016.5
20260509230218 56 29 7.0 12.2 0.00 0.00 0.00 81 1016.4
20260509225003 56 36 6.1 12.2 0.00 0.00 0.00 81 1016.5
20260509224218 56 32 7.0 13.0 0.00 0.00 0.00 81 1016.4
20260509223003 56 28 7.0 14.8 0.00 0.00 0.00 81 1016.3
20260509222003 56 34 6.1 13.0 0.00 0.00 0.00 80 1016.5
20260509221003 56 34 6.1 11.3 0.00 0.00 0.00 80 1016.6
20260509220003 56 34 6.1 12.2 0.00 0.00 0.00 80 1016.5
20260509215003 56 28 7.0 12.2 0.00 0.00 0.00 79 1016.5
20260509214003 57 22 7.0 17.4 0.00 0.00 0.00 78 1016.5
20260509213217 57 22 6.1 13.0 0.00 0.00 0.00 78 1016.5
20260509212003 58 19 7.8 15.6 0.00 0.00 0.00 77 1016.5
20260509211003 58 20 7.8 14.8 0.00 0.00 0.00 76 1016.4
20260509210217 58 18 7.8 13.9 0.00 0.00 0.00 75 1016.2
20260509205003 58 22 8.7 17.4 0.00 0.00 0.00 72 1016.1
20260509204003 59 21 7.0 13.0 0.00 0.00 0.00 68 1015.9
20260509203003 59 18 4.3 12.2 0.00 0.00 0.00 67 1015.8
20260509202003 59 10 2.6 7.8 0.00 0.00 0.00 65 1015.8
20260509201003 59 9 3.5 7.8 0.00 0.00 0.00 65 1015.7
20260509200003 60 3 3.5 7.8 0.00 0.00 0.00 64 1015.7
20260509195003 60 4 3.5 11.3 0.00 0.00 0.00 63 1015.7
20260509194217 61 6 3.5 10.4 0.00 0.00 0.00 63 1015.6
20260509193217 61 2 6.1 10.4 0.00 0.00 0.00 62 1015.5
20260509192003 62 357 4.3 11.3 0.00 0.00 0.00 61 1015.5
20260509191003 62 359 4.3 11.3 0.00 0.00 0.00 60 1015.6